Location: Mizzole
(45.4833°N, 11.0500°E)
Time: 23:45:26
(UTC+00:00)

Cosmos 44 - Pass Details

Date: 21 October 2019
Orbit: 593 x 769 km, 65.1° (Epoch: 22 November)

Event Time Altitude Azimuth Distance (km) Brightness Sun altitude
Rises 19:02:59 0° 230° (SW) 3,098 7.1 -29.0°
Reaches altitude 10° 19:05:27 10° 236° (SW) 2,154 6.3 -29.4°
Enters shadow 19:09:43 47° 291° (WNW) 899 4.1 -30.1°
